[[{"header":{"parameterUnit":"m.s-1","parameterCategory":1,"la1":30.2991,"la2":30.254,"lo1":-89.0895,"lo2":-89.0444,"dy":0.0017,"dx":0.0017,"nx":28,"ny":28,"refTime":"2023-04-17T21:00:00:Z","depth":0,"parameterNumber":2,"parameterNumberName":"U-component_of_WINDS"},"data":[0,0,0,0,0,0,0,0,0,0,0,0,0,0,0,0,0,0,0,0,0,0,0,0,0,0,0,0,0,0,0,0,0,0,0,0,0,0,0,0,0,0,0,0,0,0,0,0,0,0,0,0,0,0,0,0,0,0,-5.022,-5.0221,0,-5.0272,-5.0272,-5.0273,-5.0252,-5.025,-5.0249,-5.0248,-5.03,-5.0302,-5.0305,0,0,0,0,0,0,0,0,0,0,0,0,0,-5.0104,-5.0106,-5.022,-5.0221,-5.0222,-5.0272,-5.0272,-5.0273,-5.0252,-5.025,-5.0249,-5.0247,-5.0299,-5.0302,-5.0305,0,0,0,0,0,0,0,0,0,0,0,0,0,-5.0155,-5.0107,-5.022,-5.0217,-5.0217,-5.0272,-5.0272,-5.0273,-5.0252,-5.025,-5.0248,-5.0247,-5.0298,-5.0302,-5.0305,-5.0366,0,0,-5.0317,-5.0319,0,0,0,0,0,0,0,0,-5.0152,-5.0159,-5.0217,-5.0217,-5.0218,-5.0253,-5.025,-5.0304,-5.0253,-5.0239,-5.0248,-5.0246,-5.0286,-5.029,-5.0304,-5.0368,-5.037,-5.0317,-5.032,-5.0321,-5.0322,0,0,0,0,0,0,0,-5.0149,-5.0157,-5.0241,-5.0218,-5.0218,-5.0213,-5.0218,-5.0261,-5.0272,-5.024,-5.0239,-5.0245,-5.0286,-5.0301,-5.0305,-5.0371,-5.0317,-5.0321,-5.0323,-5.0324,-5.0488,-5.049,0,0,0,0,0,0,-5.0145,-5.0154,-5.0239,-5.0242,-5.018,-5.0217,-5.0223,-5.0244,-5.0271,-5.0274,-5.0246,-5.0244,-5.0295,-5.0301,-5.0307,-5.0379,-5.0321,-5.0325,-5.0327,-5.0486,-5.0488,-5.049,0,0,0,0,0,0,-5.0143,-5.0153,-5.0237,-5.0198,-5.0208,-5.0221,-5.0245,-5.0246,-5.0261,-5.0276,-5.0278,-5.0259,-5.0294,-5.0302,-5.0351,-5.038,-5.0326,-5.033,-5.0483,-5.0486,-5.0489,-5.0523,0,0,0,0,0,0,-5.0139,-5.0152,-5.0175,-5.0199,-5.021,-5.028,-5.0247,-5.0248,-5.0267,-5.0264,-5.0289,-5.0291,-5.0293,-5.0346,-5.0355,-5.0385,-5.0333,-5.0481,-5.0485,-5.0488,-5.052,-5.0527,-5.0534,0,0,0,0,0,-5.0135,-5.0182,-5.0176,-5.0186,-5.0239,-5.0282,-5.0289,-5.029,-5.027,-5.0293,-5.0303,-5.0291,-5.0377,-5.0351,-5.0361,-5.0392,-5.0479,-5.0483,-5.0488,-5.0516,-5.0526,-5.0534,0,0,0,0,0,0,-5.016,-5.0185,-5.0178,-5.0234,-5.0256,-5.0278,-5.0307,-5.0299,-5.0327,-5.0323,-5.0323,-5.0329,-5.038,-5.0392,-5.0363,-5.0453,-5.0425,-5.0431,-5.0443,-5.0452,-5.0459,-5.0454,-5.0336,0,0,0,0,0,-5.0172,-5.0205,-5.0225,-5.0272,-5.0284,-5.0294,-5.0313,-5.0312,-5.0334,-5.0343,-5.0358,-5.038,-5.0412,-5.0433,-5.0463,-5.0522,-5.0527,-5.0549,-5.0556,-5.0562,-5.0567,-5.0599,-5.0609,-5.0506,-5.0506,-5.0506,0,0,-5.0197,-5.0215,-5.0235,-5.0278,-5.0295,-5.0329,-5.0302,-5.0339,-5.0364,-5.0349,-5.0396,-5.0408,-5.0433,-5.0488,-5.0513,-5.0499,-5.0597,-5.0568,-5.0572,-5.0574,-5.0605,-5.0615,-5.0624,-5.0509,-5.0508,-5.0508,0,0,-5.0259,-5.0277,-5.0318,-5.0336,-5.0363,-5.0369,-5.0379,-5.0403,-5.0411,-5.0459,-5.0448,-5.0479,-5.0534,-5.0553,-5.0569,-5.0642,-5.0631,-5.0652,-5.0688,-5.072,-5.0728,-5.0735,-5.076,-5.0769,-5.0658,-5.0658,-5.0658,0,-5.0287,-5.0338,-5.034,-5.0378,-5.0397,-5.0387,-5.0429,-5.0446,-5.0481,-5.0495,-5.048,-5.0549,-5.0566,-5.0625,-5.0643,-5.0657,-5.0668,-5.0648,-5.0726,-5.0734,-5.074,-5.0764,-5.0774,-5.066,-5.066,-5.066,-5.066,0,-5.037,-5.0405,-5.0436,-5.047,-5.0493,-5.0533,-5.0542,-5.0565,-5.0563,-5.0572,-5.0621,-5.0641,-5.0676,-5.069,-5.0688,-5.075,-5.074,-5.0726,-5.0697,-5.0752,-5.0775,-5.0784,-5.0663,-5.0663,-5.0662,-5.0661,0,0,-5.0445,-5.0483,-5.0494,-5.051,-5.054,-5.0567,-5.0608,-5.0642,-5.0662,-5.0687,-5.0721,-5.0769,-5.0757,-5.0776,-5.0776,-5.0804,-5.086,-5.0787,-5.0787,-5.0798,-5.0928,-5.0937,-5.0948,-5.0855,-5.0857,-5.0858,-5.0926,0,-5.0509,-5.0579,-5.0584,-5.0647,-5.068,-5.0672,-5.0708,-5.073,-5.074,-5.077,-5.0781,-5.0815,-5.0796,-5.0808,-5.0835,-5.0847,-5.0886,-5.0843,-5.0885,-5.0886,-5.0876,-5.096,-5.0969,-5.1032,-5.0935,-5.0936,-5.0937,0,-5.0591,-5.062,-5.0687,-5.0714,-5.0728,-5.0759,-5.0791,-5.082,-5.0846,-5.0852,-5.0874,-5.0872,-5.0913,-5.0886,-5.0943,-5.0914,-5.0932,-5.0941,-5.0944,-5.0945,-5.0913,-5.0962,-5.1052,-5.106,-5.0951,-5.095,-5.0949,0,-5.0639,-5.0694,-5.0742,-5.0756,-5.0788,-5.081,-5.0825,-5.0849,-5.087,-5.0899,-5.0912,-5.0946,-5.0964,-5.099,-5.0997,-5.0976,-5.1054,-5.1027,-5.1059,-5.1059,-5.1074,-5.1072,-5.1165,-5.1089,-5.1089,-5.1089,-5.1088,0,-5.0708,-5.0748,-5.0763,-5.0792,-5.0838,-5.0844,-5.0889,-5.0903,-5.0925,-5.0956,-5.0953,-5.0982,-5.0991,-5.1022,-5.1028,-5.1075,-5.1083,-5.1088,-5.1089,-5.1087,-5.1087,-5.1097,-5.1092,-5.1091,-5.1091,-5.109,-5.109,0,-5.0767,-5.0778,-5.0829,-5.0857,-5.0865,-5.0897,-5.092,-5.0949,-5.0959,-5.0999,-5.1009,-5.1026,-5.1063,-5.1073,-5.1117,-5.1122,-5.1176,-5.1174,-5.1167,-5.1166,-5.1197,-5.1194,-5.1299,-5.1313,-5.1229,-5.123,-5.1231,0,-5.0809,-5.084,-5.0871,-5.0892,-5.0908,-5.0942,-5.0964,-5.0972,-5.0994,-5.1028,-5.1052,-5.1089,-5.1118,-5.1178,-5.1194,-5.1228,-5.1225,-5.126,-5.123,-5.1228,-5.1224,-5.1222,-5.1225,-5.1265,-5.1266,-5.1267,-5.1267,0,-5.0882,-5.0887,-5.0918,-5.0952,-5.0978,-5.1005,-5.1031,-5.1049,-5.1061,-5.1087,-5.1125,-5.1148,-5.1194,-5.1231,-5.1266,-5.1281,-5.1276,-5.1277,-5.1286,-5.1283,-5.1278,-5.128,-5.118,-5.1274,-5.1273,-5.1273,-5.1272,-5.1272,-5.0933,-5.096,-5.0987,-5.1022,-5.1043,-5.1068,-5.1096,-5.1111,-5.1143,-5.1181,-5.1184,-5.1226,-5.1253,-5.1299,-5.1317,-5.135,-5.1339,-5.1353,-5.1356,-5.1358,-5.136,-5.1275,-5.1356,-5.1356,-5.1356,-5.1356,-5.1356,0,-5.1004,-5.1022,-5.1054,-5.1091,-5.112,-5.1114,-5.1144,-5.1167,-5.1204,-5.1229,-5.1259,-5.1304,-5.134,-5.136,-5.1396,-5.1418,-5.1417,-5.1427,-5.1425,-5.1428,-5.1368,-5.1356,-5.1428,-5.1428,-5.1428,-5.1428,-5.1428,-5.1428,-5.1045,-5.1091,-5.11,-5.1157,-5.1174,-5.1215,-5.1232,-5.1255,-5.1276,-5.1326,-5.1356,-5.1369,-5.1393,-5.1431,-5.1464,-5.1469,-5.1482,-5.1493,-5.1497,-5.144,-5.1432,-5.1425,-5.1414,-5.1497,-5.1497,-5.1554,-5.1555,-5.1555]},{"header":{"parameterUnit":"m.s-1","parameterCategory":1,"la1":30.2991,"la2":30.254,"lo1":-89.0895,"lo2":-89.0444,"dy":0.0017,"dx":0.0017,"nx":28,"ny":28,"refTime":"2023-04-17T21:00:00:Z","depth":0,"parameterNumber":3,"parameterNumberName":"V-component_of_WINDS"},"data":[0,0,0,0,0,0,0,0,0,0,0,0,0,0,0,0,0,0,0,0,0,0,0,0,0,0,0,0,0,0,0,0,0,0,0,0,0,0,0,0,0,0,0,0,0,0,0,0,0,0,0,0,0,0,0,0,0,0,3.5999,3.5999,0,3.6017,3.6017,3.6018,3.607,3.6071,3.6073,3.6074,3.6088,3.6087,3.6087,0,0,0,0,0,0,0,0,0,0,0,0,0,3.6006,3.6006,3.5999,3.5999,3.5999,3.6017,3.6017,3.6018,3.607,3.6071,3.6073,3.6074,3.6088,3.6087,3.6087,0,0,0,0,0,0,0,0,0,0,0,0,0,3.6012,3.6006,3.5999,3.6028,3.6031,3.6017,3.6017,3.6018,3.607,3.6071,3.6073,3.6075,3.6089,3.6087,3.6086,3.6045,0,0,3.6083,3.6083,0,0,0,0,0,0,0,0,3.6011,3.6011,3.6023,3.6026,3.6029,3.6043,3.6025,3.6027,3.6069,3.6055,3.6074,3.6076,3.6071,3.6072,3.6071,3.6046,3.6046,3.6083,3.6083,3.6082,3.6082,0,0,0,0,0,0,0,3.6011,3.6011,3.6006,3.6023,3.6027,3.6039,3.6042,3.6026,3.6053,3.6056,3.606,3.6062,3.6073,3.6072,3.6072,3.6047,3.6083,3.6082,3.6082,3.6081,3.599,3.5989,0,0,0,0,0,0,3.6007,3.601,3.6005,3.6007,3.6024,3.6037,3.604,3.6037,3.6053,3.6058,3.606,3.6064,3.6073,3.6073,3.6073,3.6027,3.6082,3.6081,3.6081,3.5992,3.599,3.5988,0,0,0,0,0,0,3.6007,3.6006,3.6005,3.6009,3.601,3.6035,3.6031,3.6036,3.6036,3.6056,3.6061,3.6054,3.6075,3.6074,3.6053,3.6029,3.6081,3.608,3.5994,3.5991,3.5989,3.5935,0,0,0,0,0,0,3.6007,3.6006,3.5991,3.6009,3.601,3.5985,3.603,3.6035,3.6034,3.6039,3.6052,3.6056,3.6076,3.6054,3.6051,3.6028,3.6079,3.5996,3.5993,3.599,3.5939,3.5931,3.5924,0,0,0,0,0,3.6007,3.5973,3.599,3.5989,3.5992,3.5983,3.5984,3.6009,3.6032,3.6017,3.6031,3.6056,3.6031,3.6051,3.6049,3.6025,3.5998,3.5994,3.599,3.5942,3.5932,3.5924,0,0,0,0,0,0,3.595,3.5976,3.5995,3.5966,3.5972,3.5992,3.5974,3.5997,3.5995,3.6,3.603,3.6032,3.6006,3.6013,3.6035,3.5987,3.6019,3.6014,3.5983,3.5974,3.5967,3.5966,3.6078,0,0,0,0,0,3.5935,3.5927,3.5949,3.5922,3.5924,3.5949,3.5946,3.5965,3.5971,3.5974,3.5986,3.599,3.5984,3.5979,3.5974,3.594,3.5944,3.5922,3.5915,3.5908,3.5904,3.5888,3.5879,3.5975,3.5975,3.5975,0,0,3.5902,3.5915,3.5908,3.5911,3.5918,3.5908,3.595,3.5938,3.5931,3.5971,3.5953,3.5961,3.5969,3.5941,3.5929,3.5946,3.5879,3.5903,3.5898,3.5897,3.5883,3.5874,3.5866,3.5972,3.5972,3.5973,0,0,3.5838,3.5847,3.5826,3.5833,3.5844,3.586,3.5855,3.5872,3.588,3.5862,3.5893,3.5884,3.5872,3.5877,3.5877,3.5816,3.584,3.5814,3.5774,3.5758,3.575,3.5744,3.5724,3.5716,3.5809,3.5809,3.5809,0,3.5796,3.5784,3.5812,3.5799,3.58,3.5837,3.5817,3.5821,3.5829,3.5828,3.5847,3.5834,3.5841,3.5816,3.5802,3.58,3.5796,3.5813,3.5749,3.5743,3.5738,3.5719,3.5711,3.5806,3.5806,3.5807,3.5807,0,3.5732,3.5723,3.5705,3.5714,3.5713,3.5695,3.5721,3.5715,3.5734,3.5749,3.573,3.574,3.5739,3.5734,3.5751,3.5712,3.5722,3.5744,3.5778,3.5725,3.5708,3.57,3.5802,3.5803,3.5804,3.5804,0,0,3.5633,3.5659,3.5652,3.5658,3.5673,3.5666,3.565,3.5651,3.5647,3.565,3.5639,3.5628,3.565,3.5651,3.5669,3.5654,3.5608,3.5679,3.568,3.5667,3.5566,3.555,3.5541,3.5623,3.5622,3.5621,3.5566,0,3.5575,3.5551,3.5577,3.5548,3.554,3.5577,3.5563,3.557,3.5584,3.5579,3.5592,3.5586,3.5614,3.5615,3.5602,3.5616,3.5588,3.562,3.5612,3.5612,3.5611,3.5532,3.5515,3.5463,3.5559,3.5558,3.5557,0,3.5503,3.5506,3.5477,3.5496,3.5493,3.5481,3.5484,3.5479,3.5488,3.5499,3.55,3.5523,3.5509,3.554,3.5521,3.5543,3.5541,3.5547,3.5546,3.5547,3.5582,3.5532,3.5446,3.5439,3.5547,3.5547,3.5548,0,3.5436,3.5432,3.5415,3.5418,3.5439,3.543,3.5437,3.5448,3.5448,3.545,3.545,3.5449,3.545,3.5449,3.5471,3.5492,3.5449,3.5482,3.5458,3.5457,3.5448,3.5449,3.5362,3.5444,3.5444,3.5445,3.5445,0,3.5369,3.535,3.5386,3.5375,3.5355,3.5384,3.5363,3.5375,3.5384,3.5376,3.5406,3.5398,3.5427,3.5421,3.5438,3.5421,3.542,3.5428,3.5433,3.5426,3.5425,3.5426,3.5431,3.5443,3.5443,3.5443,3.5444,0,3.5291,3.5314,3.5298,3.532,3.5324,3.5309,3.5327,3.5318,3.5333,3.5323,3.5322,3.5345,3.5341,3.5362,3.536,3.5372,3.5346,3.5356,3.5344,3.5348,3.5323,3.5325,3.5235,3.5225,3.5312,3.5311,3.531,0,3.5247,3.5234,3.5255,3.5252,3.5259,3.5254,3.5255,3.5282,3.5281,3.5291,3.5281,3.5279,3.5279,3.5269,3.5286,3.5285,3.5296,3.5265,3.5296,3.5291,3.5298,3.5299,3.5298,3.5258,3.5257,3.5256,3.5256,0,3.5168,3.5181,3.518,3.5184,3.5183,3.5187,3.5193,3.5189,3.5219,3.5215,3.5212,3.5212,3.5212,3.521,3.5212,3.522,3.5243,3.5246,3.524,3.5234,3.5228,3.5233,3.5328,3.5248,3.5248,3.5249,3.5249,3.525,3.5107,3.5098,3.5112,3.511,3.5118,3.5123,3.5116,3.5131,3.5129,3.5132,3.5148,3.5142,3.5152,3.5158,3.5164,3.5159,3.5174,3.5165,3.5163,3.5161,3.5158,3.5228,3.5159,3.5159,3.5159,3.516,3.516,0,3.5031,3.5042,3.5041,3.5049,3.5048,3.507,3.5078,3.5076,3.507,3.5078,3.5079,3.5075,3.5073,3.509,3.509,3.5083,3.5094,3.5083,3.5084,3.5086,3.5144,3.5149,3.5074,3.5074,3.5074,3.5074,3.5074,3.5074,3.4992,3.4978,3.4992,3.4982,3.4992,3.4988,3.499,3.4995,3.5002,3.4997,3.4997,3.5008,3.502,3.5022,3.5021,3.5026,3.5025,3.5011,3.5019,3.5073,3.5081,3.5089,3.5095,3.501,3.501,3.4962,3.4962,3.4961]}]]